DW4604 Weather Reports


Display with metric or nautical units.
time (UTC)temp
F
wind
direction
speed
MPH
gust
MPH
rain 1hr
in
rain 24hr
in
rain mn
in
humidity
%
barometer
mb
20260506160952 75 0 0.0 0.0 0.00 0.00 0.00 51 1004.5
20260506160453 75 0 0.0 0.0 0.00 0.00 0.00 49 1004.4
20260506155953 75 0 0.0 0.0 0.00 0.00 0.00 50 1004.5
20260506155452 75 0 0.0 0.0 0.00 0.00 0.00 47 1004.5
20260506154952 76 0 0.0 0.0 0.00 0.00 0.00 48 1004.6
20260506154453 76 0 0.0 0.0 0.00 0.00 0.00 47 1004.5
20260506153952 76 0 0.0 0.0 0.00 0.00 0.00 47 1004.6
20260506152452 76 0 0.0 0.0 0.00 0.00 0.00 45 1004.7
20260506151453 77 0 0.0 0.0 0.00 0.00 0.00 45 1004.7
20260506150954 77 0 0.0 0.0 0.00 0.00 0.00 45 1004.7
20260506145952 77 0 0.0 0.0 0.00 0.00 0.00 47 1004.8
20260506145453 76 0 0.0 0.0 0.00 0.00 0.00 45 1004.9
20260506144952 78 0 0.0 0.0 0.00 0.00 0.00 44 1004.9
20260506144453 78 0 0.0 0.0 0.00 0.00 0.00 44 1005.0
20260506143954 79 0 0.0 0.0 0.00 0.00 0.00 43 1005.0
20260506143453 79 0 0.0 0.0 0.00 0.00 0.00 44 1005.0
20260506142953 78 0 0.0 0.0 0.00 0.00 0.00 45 1005.1
20260506142453 78 0 0.0 0.0 0.00 0.00 0.00 45 1005.1
20260506141952 78 0 0.0 0.0 0.00 0.00 0.00 44 1005.1
20260506141452 78 0 0.0 0.0 0.00 0.00 0.00 43 1005.2
20260506140452 79 0 0.0 0.0 0.00 0.00 0.00 43 1005.1
20260506135952 79 0 0.0 0.0 0.00 0.00 0.00 44 1005.2
20260506134453 79 0 0.0 0.0 0.00 0.00 0.00 45 1005.2
20260506133953 79 0 0.0 0.0 0.00 0.00 0.00 43 1005.3
20260506133453 78 0 0.0 0.0 0.00 0.00 0.00 43 1005.4
20260506132953 78 0 0.0 0.0 0.00 0.00 0.00 42 1005.4
20260506132453 79 0 0.0 0.0 0.00 0.00 0.00 45 1005.4
20260506131953 78 0 0.0 0.0 0.00 0.00 0.00 47 1005.4
20260506131454 79 0 0.0 0.0 0.00 0.00 0.00 46 1005.4
20260506130953 79 0 0.0 0.0 0.00 0.00 0.00 45 1005.4
20260506130454 79 0 0.0 0.0 0.00 0.00 0.00 45 1005.5
20260506125453 78 0 0.0 0.0 0.00 0.00 0.00 48 1005.5
20260506124453 77 0 0.0 0.0 0.00 0.00 0.00 48 1005.7
20260506123953 76 0 0.0 0.0 0.00 0.00 0.00 51 1005.7
20260506123453 76 0 0.0 0.0 0.00 0.00 0.00 48 1005.7
20260506122954 78 0 0.0 0.0 0.00 0.00 0.00 46 1005.7
20260506122454 78 0 0.0 0.0 0.00 0.00 0.00 49 1005.7
20260506121953 78 0 0.0 0.0 0.00 0.00 0.00 49 1005.7
20260506121454 78 0 0.0 0.0 0.00 0.00 0.00 48 1005.6
20260506120953 78 0 0.0 0.0 0.00 0.00 0.00 50 1005.7
20260506120454 78 0 0.0 0.0 0.00 0.00 0.00 48 1005.8
20260506115953 77 0 0.0 0.0 0.00 0.00 0.00 47 1005.6
20260506115454 77 0 0.0 0.0 0.00 0.00 0.00 48 1005.7
20260506114953 78 0 0.0 0.0 0.00 0.00 0.00 47 1005.8
20260506114454 77 0 0.0 0.0 0.00 0.00 0.00 50 1005.6
20260506113953 77 0 0.0 0.0 0.00 0.00 0.00 49 1005.7
20260506113454 77 0 0.0 0.0 0.00 0.00 0.00 48 1005.7
20260506112953 77 0 0.0 0.0 0.00 0.00 0.00 50 1005.7
20260506112454 77 0 0.0 0.0 0.00 0.00 0.00 50 1005.7
20260506111954 77 0 0.0 0.0 0.00 0.00 0.00 51 1005.6
20260506111453 78 0 0.0 0.0 0.00 0.00 0.00 52 1005.6
20260506110953 76 0 0.0 0.0 0.00 0.00 0.00 50 1005.7
20260506110453 76 0 0.0 0.0 0.00 0.00 0.00 52 1005.8
20260506105953 76 0 0.0 0.0 0.00 0.00 0.00 50 1005.9
20260506105453 76 0 0.0 0.0 0.00 0.00 0.00 50 1005.8
20260506104955 75 0 0.0 0.0 0.00 0.00 0.00 50 1005.9
20260506104454 76 0 0.0 0.0 0.00 0.00 0.00 49 1005.8
20260506103954 76 0 0.0 0.0 0.00 0.00 0.00 51 1005.8
20260506102954 76 0 0.0 0.0 0.00 0.00 0.00 50 1005.8
20260506102453 76 0 0.0 0.0 0.00 0.00 0.00 55 1005.9
20260506101953 74 0 0.0 0.0 0.00 0.00 0.00 54 1005.8
20260506100953 72 0 0.0 0.0 0.00 0.00 0.00 57 1005.9
20260506100453 73 0 0.0 0.0 0.00 0.00 0.00 58 1005.9
20260506095454 74 0 0.0 0.0 0.00 0.00 0.00 56 1005.9
20260506094454 76 0 0.0 0.0 0.00 0.00 0.00 54 1005.9
20260506093953 75 0 0.0 0.0 0.00 0.00 0.00 54 1005.7
20260506093453 75 0 0.0 0.0 0.00 0.00 0.00 54 1005.7
20260506092954 75 0 0.0 0.0 0.00 0.00 0.00 55 1005.7
20260506092454 74 0 0.0 0.0 0.00 0.00 0.00 55 1005.7
20260506091954 74 0 0.0 0.0 0.00 0.00 0.00 54 1005.7
20260506091454 73 0 0.0 0.0 0.00 0.00 0.00 56 1005.6
20260506090954 74 0 0.0 0.0 0.00 0.00 0.00 55 1005.6
20260506090455 74 0 0.0 0.0 0.00 0.00 0.00 58 1005.6
20260506085954 73 0 0.0 0.0 0.00 0.00 0.00 57 1005.6
20260506085455 73 0 0.0 0.0 0.00 0.00 0.00 57 1005.6
20260506084953 73 0 0.0 0.0 0.00 0.00 0.00 58 1005.7
20260506083954 72 0 0.0 0.0 0.00 0.00 0.00 59 1005.6
20260506082954 72 0 0.0 0.0 0.00 0.00 0.00 59 1005.5
20260506082455 71 0 0.0 0.0 0.00 0.00 0.00 62 1005.5
20260506081453 71 0 0.0 0.0 0.00 0.00 0.00 61 1005.6
20260506080955 71 0 0.0 0.0 0.00 0.00 0.00 62 1005.7
20260506080454 70 0 0.0 0.0 0.00 0.00 0.00 63 1005.6
20260506073454 68 0 0.0 0.0 0.00 0.00 0.00 63 1005.4
20260506072455 67 0 0.0 0.0 0.00 0.00 0.00 64 1005.4
20260506071954 67 0 0.0 0.0 0.00 0.00 0.00 64 1005.4
20260506071454 67 0 0.0 0.0 0.00 0.00 0.00 63 1005.3
20260506070955 67 0 0.0 0.0 0.00 0.00 0.00 65 1005.4
20260506070454 66 0 0.0 0.0 0.00 0.00 0.00 65 1005.4
20260506062454 65 0 0.0 0.0 0.00 0.00 0.00 66 1005.2
20260506061956 65 0 0.0 0.0 0.00 0.00 0.00 66 1005.2
20260506061455 64 0 0.0 0.0 0.00 0.00 0.00 67 1005.1
20260506050955 60 0 0.0 0.0 0.00 0.00 0.00 72 1004.8
20260506050454 60 0 0.0 0.0 0.00 0.00 0.00 73 1004.8
20260506044454 58 0 0.0 0.0 0.00 0.00 0.00 74 1004.9
20260506043954 58 0 0.0 0.0 0.00 0.00 0.00 75 1004.8
20260506042954 57 0 0.0 0.0 0.00 0.00 0.00 76 1004.9
20260506042455 57 0 0.0 0.0 0.00 0.00 0.00 76 1004.9
20260506041954 56 0 0.0 0.0 0.00 0.00 0.00 76 1004.8
20260506041454 56 0 0.0 0.0 0.00 0.00 0.00 76 1004.8
20260506040454 56 0 0.0 0.0 0.00 0.00 0.00 75 1004.8
20260506035955 57 0 0.0 0.0 0.00 0.00 0.00 75 1004.7
20260506035455 57 0 0.0 0.0 0.00 0.00 0.00 74 1004.8
20260506034955 57 0 0.0 0.0 0.00 0.00 0.00 74 1004.8
20260506033954 58 0 0.0 0.0 0.00 0.00 0.00 72 1004.7
20260506033455 58 0 0.0 0.0 0.00 0.00 0.00 71 1004.7
20260506032455 59 0 0.0 0.0 0.00 0.00 0.00 71 1004.7
20260506031955 59 0 0.0 0.0 0.00 0.00 0.00 70 1004.7
20260506031454 59 0 0.0 0.0 0.00 0.00 0.00 70 1004.7
20260506030955 59 0 0.0 0.0 0.00 0.00 0.00 70 1004.7
20260506030456 59 0 0.0 0.0 0.00 0.00 0.00 69 1004.8
20260506025955 60 0 0.0 0.0 0.00 0.00 0.00 68 1004.6
20260506024955 60 0 0.0 0.0 0.00 0.00 0.00 68 1004.6
20260506024455 60 0 0.0 0.0 0.00 0.00 0.00 68 1004.7
20260506023455 59 0 0.0 0.0 0.00 0.00 0.00 68 1004.8
20260506022955 59 0 0.0 0.0 0.00 0.00 0.00 68 1004.7
20260506021956 59 0 0.0 0.0 0.00 0.00 0.00 68 1004.7
20260506021455 59 0 0.0 0.0 0.00 0.00 0.00 68 1004.7
20260506020455 59 0 0.0 0.0 0.00 0.00 0.00 67 1004.7
20260506015956 59 0 0.0 0.0 0.00 0.00 0.00 66 1004.7
20260506014955 60 0 0.0 0.0 0.00 0.00 0.00 66 1004.5
20260506014455 60 0 0.0 0.0 0.00 0.00 0.00 65 1004.5
20260506013954 60 0 0.0 0.0 0.00 0.00 0.00 65 1004.5
20260506013455 60 0 0.0 0.0 0.00 0.00 0.00 64 1004.5
20260506012955 61 0 0.0 0.0 0.00 0.00 0.00 64 1004.5
20260506011955 61 0 0.0 0.0 0.00 0.00 0.00 64 1004.5
20260506011455 60 0 0.0 0.0 0.00 0.00 0.00 64 1004.5
20260506010955 60 0 0.0 0.0 0.00 0.00 0.00 64 1004.6
20260506010456 59 0 0.0 0.0 0.00 0.00 0.00 66 1004.7
20260506005455 58 0 0.0 0.0 0.00 0.00 0.00 68 1004.7
20260506004955 57 0 0.0 0.0 0.00 0.00 0.00 69 1004.7
20260506004455 57 0 0.0 0.0 0.00 0.00 0.00 69 1004.7
20260506003955 56 0 0.0 0.0 0.00 0.00 0.00 69 1004.7
20260506003455 57 0 0.0 0.0 0.00 0.00 0.00 68 1004.7
20260506002955 58 0 0.0 0.0 0.00 0.00 0.00 68 1004.7
20260506002456 58 0 0.0 0.0 0.00 0.00 0.00 67 1004.7
20260506001955 58 0 0.0 0.0 0.00 0.00 0.00 67 1004.7
20260506000955 58 0 0.0 0.0 0.00 0.00 0.00 67 1004.7
20260505235956 56 0 0.0 0.0 0.00 0.00 0.00 71 1004.9
20260505234955 56 0 0.0 0.0 0.00 0.00 0.00 70 1004.9
20260505234455 57 0 0.0 0.0 0.00 0.00 0.00 68 1005.0
20260505233956 57 0 0.0 0.0 0.00 0.00 0.00 68 1005.0
20260505233455 58 0 0.0 0.0 0.00 0.00 0.00 68 1005.0
20260505232956 58 0 0.0 0.0 0.00 0.00 0.00 67 1005.1
20260505232456 58 0 0.0 0.0 0.00 0.00 0.00 67 1005.0
20260505231956 59 0 0.0 0.0 0.00 0.00 0.00 66 1005.1
20260505231456 59 0 0.0 0.0 0.00 0.00 0.00 65 1005.1
20260505230956 60 0 0.0 0.0 0.00 0.00 0.00 64 1005.2
20260505230457 60 0 0.0 0.0 0.00 0.00 0.00 63 1005.2
20260505225955 61 0 0.0 0.0 0.00 0.00 0.00 62 1005.2
20260505225456 62 0 0.0 0.0 0.00 0.00 0.00 61 1005.2
20260505224955 62 0 0.0 0.0 0.00 0.00 0.00 60 1005.2
20260505224455 63 0 0.0 0.0 0.00 0.00 0.00 59 1005.3
20260505223455 63 0 0.0 0.0 0.00 0.00 0.00 59 1005.3
20260505222956 62 0 0.0 0.0 0.00 0.00 0.00 59 1005.3
20260505222457 63 0 0.0 0.0 0.00 0.00 0.00 59 1005.4
20260505221957 63 0 0.0 0.0 0.00 0.00 0.00 57 1005.4
20260505220957 64 0 0.0 0.0 0.00 0.00 0.00 57 1005.4
20260505215456 64 0 0.0 0.0 0.00 0.00 0.00 56 1005.5
20260505214956 64 0 0.0 0.0 0.00 0.00 0.00 56 1005.7
20260505214456 64 0 0.0 0.0 0.00 0.00 0.00 56 1005.6
20260505213456 63 0 0.0 0.0 0.00 0.00 0.00 56 1005.7
20260505212956 62 0 0.0 0.0 0.00 0.00 0.00 57 1005.7
20260505211455 62 0 0.0 0.0 0.00 0.00 0.00 57 1005.6
20260505210456 62 0 0.0 0.0 0.00 0.00 0.00 56 1005.7
20260505205956 62 0 0.0 0.0 0.00 0.00 0.00 57 1005.6
20260505205457 62 0 0.0 0.0 0.00 0.00 0.00 57 1005.6
20260505204956 63 0 0.0 0.0 0.00 0.00 0.00 57 1005.5
20260505204456 63 0 0.0 0.0 0.00 0.00 0.00 56 1005.6
20260505203957 64 0 0.0 0.0 0.00 0.00 0.00 54 1005.6
20260505203456 65 0 0.0 0.0 0.00 0.00 0.00 54 1005.6
20260505202956 65 0 0.0 0.0 0.00 0.00 0.00 53 1005.7
20260505201456 64 0 0.0 0.0 0.00 0.00 0.00 53 1005.6
20260505200958 64 0 0.0 0.0 0.00 0.00 0.00 53 1005.6
20260505200457 64 0 0.0 0.0 0.00 0.00 0.00 52 1005.6
20260505195956 65 0 0.0 0.0 0.00 0.00 0.00 51 1005.7
20260505195456 65 0 0.0 0.0 0.00 0.00 0.00 52 1005.7
20260505194957 65 0 0.0 0.0 0.00 0.00 0.00 51 1005.6
20260505194456 66 0 0.0 0.0 0.00 0.00 0.00 51 1005.7
20260505193456 67 0 0.0 0.0 0.00 0.00 0.00 49 1005.6
20260505192956 67 0 0.0 0.0 0.00 0.00 0.00 48 1005.6
20260505192457 68 0 0.0 0.0 0.00 0.00 0.00 47 1005.6
20260505191957 68 0 0.0 0.0 0.00 0.00 0.00 47 1005.6
20260505190957 69 0 0.0 0.0 0.00 0.00 0.00 45 1005.6
20260505190457 69 0 0.0 0.0 0.00 0.00 0.00 45 1005.5
20260505185457 70 0 0.0 0.0 0.00 0.00 0.00 44 1005.6
20260505184957 71 0 0.0 0.0 0.00 0.00 0.00 42 1005.6
20260505184457 70 0 0.0 0.0 0.00 0.00 0.00 42 1005.5
20260505183457 70 0 0.0 0.0 0.00 0.00 0.00 42 1005.4
20260505182957 70 0 0.0 0.0 0.00 0.00 0.00 42 1005.5
20260505182457 71 0 0.0 0.0 0.00 0.00 0.00 40 1005.4
20260505181956 71 0 0.0 0.0 0.00 0.00 0.00 39 1005.4
20260505181458 71 0 0.0 0.0 0.00 0.00 0.00 39 1005.4
20260505180957 72 0 0.0 0.0 0.00 0.00 0.00 38 1005.3
20260505180456 72 0 0.0 0.0 0.00 0.00 0.00 38 1005.3
20260505180000 72 0 0.0 0.0 0.00 0.00 0.00 37 1005.3
20260505175456 72 0 0.0 0.0 0.00 0.00 0.00 36 1005.4
20260505174956 72 0 0.0 0.0 0.00 0.00 0.00 35 1005.2
20260505174457 72 0 0.0 0.0 0.00 0.00 0.00 34 1005.3
20260505173957 72 0 0.0 0.0 0.00 0.00 0.00 33 1005.2
20260505172457 73 0 0.0 0.0 0.00 0.00 0.00 33 1005.1
20260505171957 74 0 0.0 0.0 0.00 0.00 0.00 30 1005.1
20260505171456 74 0 0.0 0.0 0.00 0.00 0.00 31 1005.0
20260505170958 74 0 0.0 0.0 0.00 0.00 0.00 31 1004.9
20260505170457 75 0 0.0 0.0 0.00 0.00 0.00 31 1005.0
20260505165457 76 0 0.0 0.0 0.00 0.00 0.00 30 1005.0
20260505164957 76 0 0.0 0.0 0.00 0.00 0.00 31 1005.1
20260505164457 76 0 0.0 0.0 0.00 0.00 0.00 30 1005.1
20260505163957 76 0 0.0 0.0 0.00 0.00 0.00 29 1005.2
20260505162957 77 0 0.0 0.0 0.00 0.00 0.00 28 1005.2
20260505162457 77 0 0.0 0.0 0.00 0.00 0.00 28 1005.3
20260505161957 77 0 0.0 0.0 0.00 0.00 0.00 29 1005.2